Location: Unspecified
(0.0000°N, 0.0000°E)
Time: 05:21:11
(UTC+02:00)

ARIANE DEB (SPELDA) - Visible Passes

Search period start: 24 April 2014 00:00
Search period end: 04 May 2014 00:00
Orbit: 342 x 33332 km, 3.6° (Epoch: 22 April)

Date Brightness Start Highest point End Pass type
(mag) Time Alt. Az. Time Alt. Az. Time Alt. Az.
24 Apr 11.4 20:08:54 10° W 21:29:19 23° W 00:12:31 10° W visible
25 Apr 7.5 14:52:09 10° W 19:00:43 90° S 23:43:25 74° ESE visible
27 Apr 7.6 15:50:22 10° W 17:40:22 84° WNW 00:37:34 78° WSW visible
29 Apr 1.9 06:32:06 60° E 06:32:06 60° E 06:33:56 10° E visible
29 Apr 7.8 16:50:06 10° W 01:31:39 55° W 01:31:39 55° W visible
30 Apr 6.3 12:03:57 10° W 12:13:25 80° N 21:05:22 16° E visible
01 May 1.6 07:25:47 10° W 07:28:01 67° N 07:31:04 10° E visible
01 May 8.1 17:52:34 10° W 02:25:38 33° W 02:25:38 33° W visible
02 May 6.9 13:00:05 10° W 13:15:11 83° N 21:59:20 33° E visible
03 May 11.1 19:00:49 10° W 20:34:40 32° W 00:00:00 14° W visible
